Location: ????????
(55.6333°N, 37.7000°E)
Time: 06:35:21
(UTC+00:00)

Cosmos 2228 Rocket - Pass Details

Date: 19 May 2025
Orbit: 612 x 647 km, 82.5° (Epoch: 15 June)

Event Time Altitude Azimuth Distance (km) Brightness Sun altitude
Exits shadow 23:42:31 - 178° (S) 2,315 5.5 -9.0°
Reaches altitude 10° 23:43:11 10° 177° (S) 2,048 5.2 -9.0°
Maximum altitude 23:47:41 63° 97° (E) 726 3.6 -8.6°
Drops below altitude 10° 23:52:12 10° 17° (NNE) 2,057 7.1 -8.3°
Sets 23:54:28 0° 14° (NNE) 2,968 8.1 -8.1°
